Theta_e
313 314 313 312 311 309 304 293 287 300 305 290 289 286 290 295 294 296 291 291 289 286 287 284 283 285 290 298 298 292 296 292 286 292 301 303 305 301 299 294 289 289 290 295
313 313 313 312 310 309 303 291 290 300 298 284 284 289 291 295 293 293 292 290 291 290 285 282 285 289 296 298 296 293 296 292 286 290 294 299 297 299 296 293 293 290 291 295
313 313 313 311 310 310 299 291 285 290 291 290 285 286 288 289 296 294 295 293 293 289 285 285 285 288 294 298 296 301 299 291 289 284 288 294 293 297 300 296 292 291 295 298
314 313 312 312 310 310 299 291 286 289 283 287 288 289 289 288 288 295 294 291 291 288 282 284 284 288 290 294 298 298 295 286 287 289 292 295 296 297 301 297 298 295 297 296
313 313 313 312 311 309 296 289 292 290 291 291 289 288 286 289 290 290 289 289 290 288 283 285 283 287 285 287 294 292 292 286 287 284 293 297 297 302 303 303 301 298 298 298
313 312 312 312 311 307 295 295 296 295 291 290 288 285 289 289 292 292 294 292 290 288 290 293 291 292 291 290 291 289 288 286 284 282 295 297 295 298 303 303 302 300 298 301
311 312 312 312 312 310 305 299 299 292 287 289 290 290 291 291 292 289 293 294 291 294 298 296 292 289 290 292 292 293 288 287 284 283 292 289 298 303 303 306 305 306 307 312
312 312 313 313 313 312 306 305 298 293 287 290 291 291 292 293 292 291 293 295 297 298 295 284 282 282 285 289 291 292 293 289 284 282 289 297 298 299 299 297 301 305 307 316
311 312 312 313 313 312 308 306 304 296 289 289 293 291 292 290 290 290 291 296 296 295 286 284 280 279 285 287 291 294 292 292 286 285 286 289 292 300 306 308 296 306 306 309
311 312 312 313 313 313 309 306 304 298 291 294 294 291 291 294 293 289 289 292 291 295 289 286 284 283 289 285 286 285 286 287 285 287 288 294 296 301 305 294 296 305 307 307
311 312 312 313 313 313 310 306 306 300 293 295 297 298 295 295 294 289 291 287 290 291 286 286 286 285 287 287 288 287 287 287 286 286 286 287 298 299 294 297 301 302 304 304
311 312 313 313 313 313 312 304 308 306 297 297 301 301 302 301 299 295 295 291 289 290 285 286 287 286 288 288 283 293 286 289 287 287 288 295 296 299 304 303 300 301 301 303
312 313 313 313 313 313 312 306 305 302 297 297 297 300 304 306 304 305 294 295 295 293 292 288 287 285 287 282 286 289 291 294 288 288 292 292 294 298 303 300 299 301 301 302
312 313 313 313 313 313 309 304 305 302 297 289 296 306 302 306 305 305 304 301 299 296 292 286 284 282 288 285 287 288 290 292 289 288 290 293 296 297 298 298 301 301 302 301
312 313 313 312 313 312 311 306 303 302 298 290 293 298 300 301 301 303 303 298 296 292 289 289 286 290 289 288 288 288 291 289 288 287 293 293 294 297 300 298 299 300 301 301
312 313 312 312 313 312 309 300 306 304 300 292 287 297 301 302 300 299 298 300 296 296 292 290 292 294 289 286 285 291 294 296 297 293 297 297 301 301 301 299 301 302 302 302
312 312 312 312 311 304 299 298 302 306 301 292 288 291 297 302 300 295 295 297 295 293 292 290 289 290 291 286 284 290 294 297 297 298 299 298 303 302 305 304 304 305 305 303
311 311 310 309 308 305 301 302 307 306 296 294 292 294 295 300 296 293 294 291 292 293 292 292 290 291 288 284 291 292 296 296 296 298 301 301 302 302 303 306 306 303 302 302
311 311 311 307 303 301 300 310 310 305 301 293 293 289 292 300 298 296 295 293 289 294 289 290 290 286 285 291 294 295 297 296 296 298 299 299 299 299 301 302 303 301 301 302
311 307 304 301 302 312 308 300 299 299 297 297 290 295 294 297 297 294 293 293 291 288 292 293 288 286 295 297 298 297 299 299 299 296 294 296 296 297 299 301 304 301 301 302
303 303 303 302 311 302 302 298 293 295 290 295 294 294 293 301 296 295 296 292 292 286 287 290 285 286 292 297 298 298 300 301 300 300 299 299 298 297 299 300 305 304 305 304
306 304 308 303 300 299 295 294 296 294 292 298 296 296 298 300 302 296 298 295 294 288 293 287 285 291 293 296 297 298 298 301 299 301 298 298 299 299 299 300 301 304 305 307
308 305 303 301 298 289 289 286 289 289 293 294 294 297 303 299 298 295 295 293 290 294 287 284 286 294 296 296 296 297 297 300 301 301 300 299 298 299 299 299 300 300 302 303
304 305 289 295 294 293 292 291 291 295 295 297 296 299 299 298 296 297 293 293 291 285 281 283 287 292 296 296 296 294 295 298 300 300 300 299 298 297 298 299 300 299 298 300
305 301 294 298 298 295 296 296 295 296 297 296 296 298 296 293 292 292 289 287 280 287 286 287 292 294 294 294 293 292 294 295 297 299 300 300 298 297 297 299 299 299 298 298
307 304 297 298 295 294 295 295 294 296 296 296 295 292 291 289 289 288 285 284 278 284 289 292 295 292 292 294 292 293 295 296 295 297 298 300 300 298 297 298 298 299 298 297
305 298 300 299 297 295 296 295 295 297 294 290 291 287 286 290 286 285 285 282 285 288 289 293 295 292 293 294 292 293 296 296 294 296 296 298 300 300 298 296 297 298 299 299
Wind_Speed
20 20 20 19 20 22 6 4 4 6 11 7 3 3 7 11 14 15 6 4 5 4 3 3 3 3 4 13 13 9 8 6 8 14 10 5 7 10 13 9 11 3 5 15
19 19 19 17 17 13 5 5 4 5 7 5 4 6 7 7 14 11 11 7 5 3 2 1 3 3 4 7 8 5 6 3 9 13 3 3 5 5 7 5 6 10 11 16
18 17 17 15 14 14 3 3 5 6 5 3 2 5 4 10 9 6 12 14 2 2 4 2 3 4 5 3 4 7 6 3 10 11 17 17 12 18 9 9 8 7 13 20
18 17 15 14 12 12 3 1 1 1 6 5 10 8 5 8 7 4 4 7 10 3 2 5 4 3 4 9 5 3 4 7 13 20 24 24 24 22 20 14 14 13 11 10
18 17 14 12 12 10 2 0 3 4 3 6 8 4 3 9 11 8 10 6 12 4 6 9 6 6 5 7 6 4 3 6 14 23 21 18 19 18 13 11 16 8 7 8
17 16 14 12 10 4 1 1 2 1 3 3 4 3 9 17 16 8 5 9 12 12 11 8 12 15 14 8 7 5 4 2 8 9 7 10 2 15 10 4 11 7 16 11
18 16 14 11 9 3 2 3 2 2 4 3 3 8 14 15 14 11 13 6 1 6 13 14 11 10 16 18 15 14 6 3 4 9 9 7 10 19 12 18 21 21 15 12
17 16 14 12 9 7 3 2 3 3 3 5 7 8 7 11 11 5 8 5 6 8 9 4 6 5 6 14 16 14 14 7 6 4 4 3 18 22 16 6 14 21 19 8
16 15 14 12 10 9 3 3 3 2 0 4 6 4 8 5 4 5 5 9 9 4 1 2 3 3 4 4 2 12 11 7 6 9 4 3 10 25 24 6 17 19 22 21
16 14 13 12 11 8 3 1 4 3 2 3 3 4 3 4 4 3 5 8 8 5 4 3 3 2 7 4 6 4 5 4 8 9 6 4 21 25 17 12 10 18 14 12
15 14 13 11 10 7 2 1 6 4 2 4 5 4 4 4 3 3 4 5 5 4 6 3 4 4 5 3 3 2 2 3 2 4 3 3 23 12 9 4 11 15 17 16
15 14 13 11 7 4 4 1 2 2 1 4 2 10 14 12 11 3 3 2 3 2 3 3 3 2 3 1 3 4 6 3 2 4 4 3 9 4 9 9 11 14 16 17
15 13 11 7 3 1 5 2 2 2 1 4 2 4 4 7 2 5 2 2 1 3 4 2 3 4 4 4 4 6 10 9 2 11 3 13 19 12 10 11 15 16 14 16
14 11 8 5 3 7 6 2 2 1 1 1 4 1 4 7 4 2 3 3 2 1 3 2 2 2 4 4 4 5 8 7 8 7 4 21 3 6 13 23 19 22 17 11
12 10 5 1 4 9 3 2 3 1 2 2 4 5 1 5 7 8 5 5 3 2 3 3 3 2 5 3 2 3 9 7 6 8 17 14 21 21 21 16 20 22 16 20
9 6 3 6 7 7 2 0 2 2 2 2 3 2 1 3 5 7 6 4 3 3 2 3 3 4 4 2 1 9 16 15 9 12 15 19 23 23 21 21 21 18 16 13
6 4 5 4 7 2 2 3 3 5 3 2 3 5 2 2 2 3 2 2 2 2 2 2 1 3 4 3 3 14 20 18 17 17 18 10 10 12 13 7 11 12 15 13
1 2 5 7 8 7 1 1 5 3 3 2 1 3 3 4 3 3 4 4 3 4 2 1 3 1 2 2 8 11 15 18 15 21 18 12 11 16 16 10 9 11 14 10
2 0 3 1 1 2 3 7 5 1 1 1 1 3 5 2 1 1 2 3 3 2 3 3 3 3 3 7 7 9 13 17 20 19 20 19 19 18 19 18 12 9 8 8
2 3 0 2 1 11 9 1 1 2 2 2 3 2 3 4 2 2 1 1 0 2 1 2 2 2 6 7 7 6 8 13 16 15 21 21 23 21 20 18 12 9 7 6
1 1 2 1 4 1 2 2 2 2 2 3 4 6 3 3 3 3 3 2 3 0 1 1 3 4 7 10 9 6 6 7 14 13 16 17 18 19 18 19 15 7 9 9
3 1 1 2 1 1 1 3 3 2 3 4 4 6 5 2 3 2 3 2 2 3 4 3 3 3 8 10 10 9 7 5 10 11 16 16 18 20 19 17 17 14 13 12
1 1 2 3 3 5 4 4 6 5 4 4 3 2 4 2 2 1 3 2 3 4 4 2 4 5 8 9 7 10 8 6 7 8 11 14 15 16 18 17 17 17 19 18
2 4 5 4 2 3 1 4 5 7 4 10 4 2 4 3 3 1 4 3 5 3 4 3 3 6 9 8 7 6 8 8 3 5 5 9 12 12 15 16 16 17 20 19
4 2 2 3 2 1 3 1 4 5 4 5 3 4 4 4 5 3 4 5 2 2 2 4 4 8 5 6 6 8 7 7 3 1 3 4 6 10 13 13 14 15 17 20
3 1 3 2 4 4 4 3 4 4 5 4 4 3 3 2 3 4 3 4 1 4 4 3 3 4 5 6 7 7 7 5 6 1 1 1 1 4 6 8 11 13 15 17
2 2 2 4 3 4 3 1 4 3 5 3 4 5 2 2 4 4 3 2 3 4 5 2 3 3 5 7 7 7 7 4 6 5 5 1 4 3 1 6 7 7 6 7
Wind_Direction
331 334 336 338 337 336 8 356 357 311 345 51 17 49 323 310 5 2 344 40 63 99 46 354 315 328 335 5 7 355 26 292 287 259 311 230 255 190 197 202 226 212 186 252
328 331 330 333 333 355 338 322 271 324 33 52 354 317 323 332 4 344 360 331 37 32 30 345 334 344 4 15 6 23 40 329 315 315 89 209 230 212 191 142 137 201 203 249
324 328 326 328 328 338 55 350 349 329 31 79 20 329 289 336 338 320 2 291 14 40 3 172 282 307 340 322 317 313 74 247 266 275 298 305 293 315 245 187 186 176 216 251
323 325 325 323 322 332 78 3 320 197 329 347 324 315 293 322 333 357 25 290 29 37 341 320 288 292 315 291 117 45 125 264 272 268 274 273 264 265 271 209 203 190 216 208
320 322 321 316 319 341 77 28 2 356 268 274 312 308 310 326 340 324 309 315 320 296 213 207 237 230 162 231 129 112 300 256 310 287 263 238 243 249 240 250 206 144 190 243
320 322 320 316 317 68 322 306 16 132 262 281 306 296 332 318 317 299 318 310 305 287 271 297 240 249 253 214 159 119 222 287 335 265 304 286 187 350 11 291 182 154 217 221
323 319 312 305 297 225 212 223 126 162 277 238 244 280 298 298 318 292 299 354 286 253 293 308 273 252 242 238 186 147 195 225 221 266 301 165 120 28 37 64 34 17 356 334
320 314 311 309 294 261 204 181 159 172 258 249 273 277 298 305 300 275 302 308 242 284 288 290 323 295 284 243 180 173 195 193 265 260 284 249 22 5 347 15 38 11 360 96
319 317 314 307 289 263 225 198 143 146 250 240 248 291 298 293 314 329 284 321 316 342 277 321 241 269 263 154 136 211 181 192 257 313 300 27 2 337 329 133 39 11 15 22
322 322 314 307 301 280 216 208 148 121 212 258 211 233 272 271 278 274 291 331 333 354 11 329 293 288 303 25 52 99 171 244 259 292 256 90 354 352 359 59 19 358 8 16
324 320 312 308 304 298 175 228 177 154 200 269 219 243 258 269 251 287 303 7 7 340 18 358 328 313 344 25 41 17 118 219 348 309 2 66 351 9 57 283 344 359 350 0
324 320 316 314 308 295 166 197 150 140 172 272 301 274 259 255 258 286 311 225 344 339 13 347 301 261 277 319 47 46 61 339 337 337 275 51 341 341 269 305 346 354 352 342
325 327 330 326 318 176 157 118 110 101 301 285 306 301 17 47 223 230 227 317 9 324 210 256 292 3 349 4 54 69 10 13 17 322 79 345 318 306 269 332 331 333 333 327
331 337 337 346 83 134 131 144 173 80 119 51 282 52 38 352 346 123 132 229 8 306 48 17 19 346 28 358 359 49 353 345 304 283 284 318 305 333 325 318 314 309 313 312
341 339 337 46 139 152 134 110 214 215 140 199 282 323 277 33 23 32 48 76 73 358 23 22 20 329 351 357 356 35 351 333 336 311 311 281 277 291 293 292 291 290 297 305
343 7 101 124 148 149 151 52 248 199 116 79 356 282 41 31 50 50 26 16 38 45 26 16 15 352 357 358 63 12 342 325 305 305 296 289 277 268 269 268 273 278 279 265
348 57 72 117 157 143 173 197 207 143 92 82 342 329 331 321 24 30 19 64 74 75 100 62 346 353 7 15 333 324 338 339 323 315 315 306 311 294 273 249 260 275 283 274
352 87 72 59 114 90 7 264 115 100 93 77 172 247 351 359 345 5 353 10 21 34 27 28 8 349 359 51 295 283 338 336 337 340 347 344 345 348 333 296 262 236 254 258
182 251 332 98 215 229 216 175 154 143 149 353 234 151 217 167 203 28 37 35 31 346 33 34 18 344 12 318 316 328 348 351 346 348 360 0 3 354 344 322 299 255 244 230
143 37 336 280 266 118 116 87 156 192 223 229 229 217 245 160 144 158 118 84 315 20 58 120 70 314 286 324 307 277 341 348 343 354 357 359 1 353 348 343 295 277 287 268
82 211 242 243 166 60 220 266 194 171 278 197 234 192 194 203 188 182 205 158 157 205 194 10 28 359 314 321 317 306 308 334 4 11 3 358 356 354 351 354 5 345 319 290
202 222 198 113 200 236 294 261 304 195 247 201 200 216 198 182 118 130 168 207 145 60 140 64 24 280 311 322 316 312 321 339 8 26 10 1 7 2 359 8 10 16 15 360
342 194 242 117 240 20 65 330 318 333 296 280 281 230 160 86 130 170 173 153 68 93 48 11 231 289 312 309 308 325 329 350 17 19 24 13 7 8 5 10 19 26 33 28
177 198 299 168 328 42 235 214 227 250 255 304 305 182 165 182 157 266 64 69 56 64 0 282 267 285 293 302 301 337 324 332 51 4 32 29 20 11 14 15 20 26 31 33
239 162 330 60 228 216 223 278 350 293 271 322 357 36 79 11 56 48 49 49 12 99 264 233 242 263 301 304 316 323 329 322 345 30 7 29 32 38 30 17 21 30 35 33
234 206 35 313 53 329 352 325 312 296 309 342 44 69 68 36 97 57 39 81 149 275 281 260 229 296 321 301 312 318 320 328 329 91 182 210 63 64 59 44 38 35 43 43
281 303 204 151 184 203 235 204 288 311 32 346 43 39 334 15 62 31 57 139 224 253 291 282 237 265 292 290 315 332 338 5 354 347 10 233 205 194 33 61 63 69 50 68